#datetime,building,power
2023-07-14T00:00:00,sdl,2.77
2023-07-14T00:01:00,sdl,4.17
2023-07-14T00:02:00,sdl,3.96
2023-07-14T00:03:00,sdl,4.08
2023-07-14T00:04:00,sdl,4.25
2023-07-14T00:05:00,sdl,4.33
2023-07-14T00:06:00,sdl,4.40
2023-07-14T00:07:00,sdl,4.33
2023-07-14T00:08:00,sdl,4.42
2023-07-14T00:09:00,sdl,4.44
2023-07-14T00:10:00,sdl,4.43
2023-07-14T00:11:00,sdl,5.38
2023-07-14T00:12:00,sdl,5.97
2023-07-14T00:13:00,sdl,5.27
2023-07-14T00:14:00,sdl,5.31
2023-07-14T00:15:00,sdl,5.31
2023-07-14T00:16:00,sdl,5.31
2023-07-14T00:17:00,sdl,5.34
2023-07-14T00:18:00,sdl,5.50
2023-07-14T00:19:00,sdl,6.57
2023-07-14T00:20:00,sdl,6.62
2023-07-14T00:21:00,sdl,7.37
2023-07-14T00:22:00,sdl,7.53
2023-07-14T00:23:00,sdl,7.65
2023-07-14T00:24:00,sdl,7.64
2023-07-14T00:25:00,sdl,7.44
2023-07-14T00:26:00,sdl,7.39
2023-07-14T00:27:00,sdl,7.00
2023-07-14T00:28:00,sdl,7.32
2023-07-14T00:29:00,sdl,7.27
2023-07-14T00:30:00,sdl,5.33
2023-07-14T00:31:00,sdl,3.20
2023-07-14T00:32:00,sdl,3.06
2023-07-14T00:33:00,sdl,3.03
2023-07-14T00:34:00,sdl,3.01
2023-07-14T00:35:00,sdl,2.88
2023-07-14T00:36:00,sdl,2.95
2023-07-14T00:37:00,sdl,2.95
2023-07-14T00:38:00,sdl,4.13
2023-07-14T00:39:00,sdl,4.11
2023-07-14T00:40:00,sdl,4.28
2023-07-14T00:41:00,sdl,4.80
2023-07-14T00:42:00,sdl,4.77
2023-07-14T00:43:00,sdl,5.36
2023-07-14T00:44:00,sdl,4.67
2023-07-14T00:45:00,sdl,4.50
2023-07-14T00:46:00,sdl,4.48
2023-07-14T00:47:00,sdl,4.54
2023-07-14T00:48:00,sdl,2.44
2023-07-14T00:49:00,sdl,2.69
2023-07-14T00:50:00,sdl,2.65
2023-07-14T00:51:00,sdl,2.58
2023-07-14T00:52:00,sdl,2.56
2023-07-14T00:53:00,sdl,2.48
2023-07-14T00:54:00,sdl,2.36
2023-07-14T00:55:00,sdl,3.80
2023-07-14T00:56:00,sdl,3.59
2023-07-14T00:57:00,sdl,3.81
2023-07-14T00:58:00,sdl,3.90
2023-07-14T00:59:00,sdl,4.01
2023-07-14T01:00:00,sdl,6.33
2023-07-14T01:01:00,sdl,6.26
2023-07-14T01:02:00,sdl,6.30
2023-07-14T01:03:00,sdl,6.38
2023-07-14T01:04:00,sdl,6.79
2023-07-14T01:05:00,sdl,6.37
2023-07-14T01:06:00,sdl,6.35
2023-07-14T01:07:00,sdl,4.68
2023-07-14T01:08:00,sdl,4.67
2023-07-14T01:09:00,sdl,4.58
2023-07-14T01:10:00,sdl,4.62
2023-07-14T01:11:00,sdl,4.64
2023-07-14T01:12:00,sdl,4.93
2023-07-14T01:13:00,sdl,4.97
2023-07-14T01:14:00,sdl,5.84
2023-07-14T01:15:00,sdl,5.83
2023-07-14T01:16:00,sdl,5.89
2023-07-14T01:17:00,sdl,3.89
2023-07-14T01:18:00,sdl,4.00
2023-07-14T01:19:00,sdl,4.01
2023-07-14T01:20:00,sdl,4.06
2023-07-14T01:21:00,sdl,4.09
2023-07-14T01:22:00,sdl,4.21
2023-07-14T01:23:00,sdl,4.07
2023-07-14T01:24:00,sdl,4.11
2023-07-14T01:25:00,sdl,2.85
2023-07-14T01:26:00,sdl,2.62
2023-07-14T01:27:00,sdl,2.87
2023-07-14T01:28:00,sdl,2.62
2023-07-14T01:29:00,sdl,2.65
2023-07-14T01:30:00,sdl,2.68
2023-07-14T01:31:00,sdl,2.71
2023-07-14T01:32:00,sdl,3.82
2023-07-14T01:33:00,sdl,4.07
2023-07-14T01:34:00,sdl,4.22
2023-07-14T01:35:00,sdl,4.12
2023-07-14T01:36:00,sdl,4.23
2023-07-14T01:37:00,sdl,4.46
2023-07-14T01:38:00,sdl,4.23
2023-07-14T01:39:00,sdl,4.60
2023-07-14T01:40:00,sdl,4.61
2023-07-14T01:41:00,sdl,4.28
2023-07-14T01:42:00,sdl,4.24
2023-07-14T01:43:00,sdl,4.22
2023-07-14T01:44:00,sdl,3.08
2023-07-14T01:45:00,sdl,4.79
2023-07-14T01:46:00,sdl,4.85
2023-07-14T01:47:00,sdl,4.91
2023-07-14T01:48:00,sdl,4.75
2023-07-14T01:49:00,sdl,4.71
2023-07-14T01:50:00,sdl,4.69
2023-07-14T01:51:00,sdl,4.70
2023-07-14T01:52:00,sdl,5.82
2023-07-14T01:53:00,sdl,5.78
2023-07-14T01:54:00,sdl,5.88
2023-07-14T01:55:00,sdl,5.83
2023-07-14T01:56:00,sdl,5.92
2023-07-14T01:57:00,sdl,3.83
2023-07-14T01:58:00,sdl,3.84
2023-07-14T01:59:00,sdl,4.07
2023-07-14T02:00:00,sdl,3.88
2023-07-14T02:01:00,sdl,6.52
2023-07-14T02:02:00,sdl,5.99
2023-07-14T02:03:00,sdl,5.33
2023-07-14T02:04:00,sdl,5.34
2023-07-14T02:05:00,sdl,5.37
2023-07-14T02:06:00,sdl,10.12
2023-07-14T02:07:00,sdl,11.24
2023-07-14T02:08:00,sdl,11.55
2023-07-14T02:09:00,sdl,11.32
2023-07-14T02:10:00,sdl,13.94
2023-07-14T02:11:00,sdl,15.17
2023-07-14T02:12:00,sdl,17.51
2023-07-14T02:13:00,sdl,17.23
2023-07-14T02:14:00,sdl,17.33
2023-07-14T02:15:00,sdl,17.39
2023-07-14T02:16:00,sdl,17.48
2023-07-14T02:17:00,sdl,17.60
2023-07-14T02:18:00,sdl,18.45
2023-07-14T02:19:00,sdl,17.98
2023-07-14T02:20:00,sdl,17.87
2023-07-14T02:21:00,sdl,18.11
2023-07-14T02:22:00,sdl,17.79
2023-07-14T02:23:00,sdl,17.69
2023-07-14T02:24:00,sdl,17.46
2023-07-14T02:25:00,sdl,17.30
2023-07-14T02:26:00,sdl,17.79
2023-07-14T02:27:00,sdl,17.80
2023-07-14T02:28:00,sdl,17.75
2023-07-14T02:29:00,sdl,15.40
2023-07-14T02:30:00,sdl,16.41
2023-07-14T02:31:00,sdl,16.44
2023-07-14T02:32:00,sdl,16.49
2023-07-14T02:33:00,sdl,15.74
2023-07-14T02:34:00,sdl,15.89
2023-07-14T02:35:00,sdl,16.09
2023-07-14T02:36:00,sdl,16.34
2023-07-14T02:37:00,sdl,16.29
2023-07-14T02:38:00,sdl,16.04
2023-07-14T02:39:00,sdl,16.03
2023-07-14T02:40:00,sdl,15.96
2023-07-14T02:41:00,sdl,15.14
2023-07-14T02:42:00,sdl,14.96
2023-07-14T02:43:00,sdl,14.92
2023-07-14T02:44:00,sdl,14.87
2023-07-14T02:45:00,sdl,14.92
2023-07-14T02:46:00,sdl,15.33
2023-07-14T02:47:00,sdl,14.88
2023-07-14T02:48:00,sdl,15.82
2023-07-14T02:49:00,sdl,16.27
2023-07-14T02:50:00,sdl,16.31
2023-07-14T02:51:00,sdl,15.97
2023-07-14T02:52:00,sdl,15.95
2023-07-14T02:53:00,sdl,16.21
2023-07-14T02:54:00,sdl,16.01
2023-07-14T02:55:00,sdl,15.96
2023-07-14T02:56:00,sdl,15.90
2023-07-14T02:57:00,sdl,15.97
2023-07-14T02:58:00,sdl,14.86
2023-07-14T02:59:00,sdl,14.87
2023-07-14T03:00:00,sdl,14.83
2023-07-14T03:01:00,sdl,14.66
2023-07-14T03:02:00,sdl,16.85
2023-07-14T03:03:00,sdl,16.82
2023-07-14T03:04:00,sdl,15.05
2023-07-14T03:05:00,sdl,16.25
2023-07-14T03:06:00,sdl,15.96
2023-07-14T03:07:00,sdl,15.80
2023-07-14T03:08:00,sdl,15.78
2023-07-14T03:09:00,sdl,12.49
2023-07-14T03:10:00,sdl,9.95
2023-07-14T03:11:00,sdl,8.21
2023-07-14T03:12:00,sdl,6.85
2023-07-14T03:13:00,sdl,6.11
2023-07-14T03:14:00,sdl,4.65
2023-07-14T03:15:00,sdl,4.56
2023-07-14T03:16:00,sdl,5.00
2023-07-14T03:17:00,sdl,4.66
2023-07-14T03:18:00,sdl,4.78
2023-07-14T03:19:00,sdl,4.88
2023-07-14T03:20:00,sdl,2.48
2023-07-14T03:21:00,sdl,3.79
2023-07-14T03:22:00,sdl,3.88
2023-07-14T03:23:00,sdl,4.05
2023-07-14T03:24:00,sdl,3.89
2023-07-14T03:25:00,sdl,3.90
2023-07-14T03:26:00,sdl,3.82
2023-07-14T03:27:00,sdl,4.59
2023-07-14T03:28:00,sdl,3.94
2023-07-14T03:29:00,sdl,3.94
2023-07-14T03:30:00,sdl,4.04
2023-07-14T03:31:00,sdl,4.23
2023-07-14T03:32:00,sdl,2.46
2023-07-14T03:33:00,sdl,2.43
2023-07-14T03:34:00,sdl,2.60
2023-07-14T03:35:00,sdl,2.56
2023-07-14T03:36:00,sdl,4.76
2023-07-14T03:37:00,sdl,4.72
2023-07-14T03:38:00,sdl,4.78
2023-07-14T03:39:00,sdl,6.29
2023-07-14T03:40:00,sdl,5.97
2023-07-14T03:41:00,sdl,6.00
2023-07-14T03:42:00,sdl,6.20
2023-07-14T03:43:00,sdl,7.17
2023-07-14T03:44:00,sdl,7.32
2023-07-14T03:45:00,sdl,7.17
2023-07-14T03:46:00,sdl,7.18
2023-07-14T03:47:00,sdl,7.84
2023-07-14T03:48:00,sdl,4.98
2023-07-14T03:49:00,sdl,4.78
2023-07-14T03:50:00,sdl,2.56
2023-07-14T03:51:00,sdl,2.64
2023-07-14T03:52:00,sdl,3.02
2023-07-14T03:53:00,sdl,3.05
2023-07-14T03:54:00,sdl,2.66
2023-07-14T03:55:00,sdl,2.57
2023-07-14T03:56:00,sdl,2.56
2023-07-14T03:57:00,sdl,2.73
2023-07-14T03:58:00,sdl,3.94
2023-07-14T03:59:00,sdl,3.71
2023-07-14T04:00:00,sdl,3.84
2023-07-14T04:01:00,sdl,3.82
2023-07-14T04:02:00,sdl,3.86
2023-07-14T04:03:00,sdl,3.87
2023-07-14T04:04:00,sdl,3.31
2023-07-14T04:05:00,sdl,3.84
2023-07-14T04:06:00,sdl,3.85
2023-07-14T04:07:00,sdl,3.83
2023-07-14T04:08:00,sdl,3.82
2023-07-14T04:09:00,sdl,2.19
2023-07-14T04:10:00,sdl,2.22
2023-07-14T04:11:00,sdl,4.61
2023-07-14T04:12:00,sdl,4.46
2023-07-14T04:13:00,sdl,4.43
2023-07-14T04:14:00,sdl,4.43
2023-07-14T04:15:00,sdl,5.88
2023-07-14T04:16:00,sdl,6.17
2023-07-14T04:17:00,sdl,7.25
2023-07-14T04:18:00,sdl,7.62
2023-07-14T04:19:00,sdl,7.82
2023-07-14T04:20:00,sdl,8.06
2023-07-14T04:21:00,sdl,12.57
2023-07-14T04:22:00,sdl,12.67
2023-07-14T04:23:00,sdl,13.09
2023-07-14T04:24:00,sdl,13.41
2023-07-14T04:25:00,sdl,13.66
2023-07-14T04:26:00,sdl,15.03
2023-07-14T04:27:00,sdl,15.21
2023-07-14T04:28:00,sdl,15.02
2023-07-14T04:29:00,sdl,15.26
2023-07-14T04:30:00,sdl,13.38
2023-07-14T04:31:00,sdl,13.65
2023-07-14T04:32:00,sdl,14.10
2023-07-14T04:33:00,sdl,14.51
2023-07-14T04:34:00,sdl,15.31
2023-07-14T04:35:00,sdl,15.61
2023-07-14T04:36:00,sdl,15.74
2023-07-14T04:37:00,sdl,15.95
2023-07-14T04:38:00,sdl,16.76
2023-07-14T04:39:00,sdl,16.66
2023-07-14T04:40:00,sdl,16.18
2023-07-14T04:41:00,sdl,16.19
2023-07-14T04:42:00,sdl,16.28
2023-07-14T04:43:00,sdl,16.33
2023-07-14T04:44:00,sdl,16.33
2023-07-14T04:45:00,sdl,15.23
2023-07-14T04:46:00,sdl,15.11
2023-07-14T04:47:00,sdl,15.13
2023-07-14T04:48:00,sdl,15.00
2023-07-14T04:49:00,sdl,15.01
2023-07-14T04:50:00,sdl,14.97
2023-07-14T04:51:00,sdl,14.85
2023-07-14T04:52:00,sdl,15.05
2023-07-14T04:53:00,sdl,16.18
2023-07-14T04:54:00,sdl,16.12
2023-07-14T04:55:00,sdl,15.68
2023-07-14T04:56:00,sdl,15.61
2023-07-14T04:57:00,sdl,15.64
2023-07-14T04:58:00,sdl,15.64
2023-07-14T04:59:00,sdl,15.56
2023-07-14T05:00:00,sdl,15.48
2023-07-14T05:01:00,sdl,15.51
2023-07-14T05:02:00,sdl,15.35
2023-07-14T05:03:00,sdl,14.37
2023-07-14T05:04:00,sdl,15.01
2023-07-14T05:05:00,sdl,14.60
2023-07-14T05:06:00,sdl,16.98
2023-07-14T05:07:00,sdl,16.87
2023-07-14T05:08:00,sdl,16.82
2023-07-14T05:09:00,sdl,17.58
2023-07-14T05:10:00,sdl,16.72
2023-07-14T05:11:00,sdl,16.70
2023-07-14T05:12:00,sdl,17.61
2023-07-14T05:13:00,sdl,17.69
2023-07-14T05:14:00,sdl,17.69
2023-07-14T05:15:00,sdl,17.64
2023-07-14T05:16:00,sdl,17.84
2023-07-14T05:17:00,sdl,17.58
2023-07-14T05:18:00,sdl,17.61
2023-07-14T05:19:00,sdl,17.76
2023-07-14T05:20:00,sdl,17.16
2023-07-14T05:21:00,sdl,16.77
2023-07-14T05:22:00,sdl,17.00
2023-07-14T05:23:00,sdl,15.00
2023-07-14T05:24:00,sdl,12.38
2023-07-14T05:25:00,sdl,12.33
2023-07-14T05:26:00,sdl,12.32
2023-07-14T05:27:00,sdl,12.26
2023-07-14T05:28:00,sdl,4.55
2023-07-14T05:29:00,sdl,3.94
2023-07-14T05:30:00,sdl,4.02
2023-07-14T05:31:00,sdl,4.34
2023-07-14T05:32:00,sdl,4.51
2023-07-14T05:33:00,sdl,4.50
2023-07-14T05:34:00,sdl,3.98
2023-07-14T05:35:00,sdl,3.76
2023-07-14T05:36:00,sdl,3.73
2023-07-14T05:37:00,sdl,2.30
2023-07-14T05:38:00,sdl,2.18
2023-07-14T05:39:00,sdl,4.43
2023-07-14T05:40:00,sdl,4.49
2023-07-14T05:41:00,sdl,4.47
2023-07-14T05:42:00,sdl,4.47
2023-07-14T05:43:00,sdl,4.45
2023-07-14T05:44:00,sdl,4.50
2023-07-14T05:45:00,sdl,5.50
2023-07-14T05:46:00,sdl,5.70
2023-07-14T05:47:00,sdl,5.86
2023-07-14T05:48:00,sdl,5.97
2023-07-14T05:49:00,sdl,5.87
2023-07-14T05:50:00,sdl,5.99
2023-07-14T05:51:00,sdl,5.98
2023-07-14T05:52:00,sdl,4.20
2023-07-14T05:53:00,sdl,4.24
2023-07-14T05:54:00,sdl,3.97
2023-07-14T05:55:00,sdl,2.56
2023-07-14T05:56:00,sdl,2.36
2023-07-14T05:57:00,sdl,2.35
2023-07-14T05:58:00,sdl,2.33
2023-07-14T05:59:00,sdl,2.38
2023-07-14T06:00:00,sdl,2.32
2023-07-14T06:01:00,sdl,3.92
2023-07-14T06:02:00,sdl,3.64
2023-07-14T06:03:00,sdl,3.46
2023-07-14T06:04:00,sdl,4.60
2023-07-14T06:05:00,sdl,4.60
2023-07-14T06:06:00,sdl,4.71
2023-07-14T06:07:00,sdl,5.17
2023-07-14T06:08:00,sdl,5.58
2023-07-14T06:09:00,sdl,5.93
2023-07-14T06:10:00,sdl,6.02
2023-07-14T06:11:00,sdl,5.92
2023-07-14T06:12:00,sdl,6.03
2023-07-14T06:13:00,sdl,5.99
2023-07-14T06:14:00,sdl,5.55
2023-07-14T06:15:00,sdl,4.60
2023-07-14T06:16:00,sdl,3.20
2023-07-14T06:17:00,sdl,6.09
2023-07-14T06:18:00,sdl,5.42
2023-07-14T06:19:00,sdl,5.54
2023-07-14T06:20:00,sdl,5.48
2023-07-14T06:21:00,sdl,5.93
2023-07-14T06:22:00,sdl,5.95
2023-07-14T06:23:00,sdl,5.54
2023-07-14T06:24:00,sdl,6.47
2023-07-14T06:25:00,sdl,7.04
2023-07-14T06:26:00,sdl,7.23
2023-07-14T06:27:00,sdl,7.37
2023-07-14T06:28:00,sdl,8.47
2023-07-14T06:29:00,sdl,8.21
2023-07-14T06:30:00,sdl,12.42
2023-07-14T06:31:00,sdl,13.04
2023-07-14T06:32:00,sdl,12.74
2023-07-14T06:33:00,sdl,13.22
2023-07-14T06:34:00,sdl,13.60
2023-07-14T06:35:00,sdl,15.34
2023-07-14T06:36:00,sdl,15.59
2023-07-14T06:37:00,sdl,13.56
2023-07-14T06:38:00,sdl,13.33
2023-07-14T06:39:00,sdl,13.61
2023-07-14T06:40:00,sdl,13.87
2023-07-14T06:41:00,sdl,14.08
2023-07-14T06:42:00,sdl,14.02
2023-07-14T06:43:00,sdl,14.57
2023-07-14T06:44:00,sdl,14.71
2023-07-14T06:45:00,sdl,15.49
2023-07-14T06:46:00,sdl,15.82
2023-07-14T06:47:00,sdl,15.72
2023-07-14T06:48:00,sdl,15.97
2023-07-14T06:49:00,sdl,16.52
2023-07-14T06:50:00,sdl,16.03
2023-07-14T06:51:00,sdl,16.03
2023-07-14T06:52:00,sdl,16.23
2023-07-14T06:53:00,sdl,16.65
2023-07-14T06:54:00,sdl,16.75
2023-07-14T06:55:00,sdl,15.62
2023-07-14T06:56:00,sdl,15.89
2023-07-14T06:57:00,sdl,16.51
2023-07-14T06:58:00,sdl,15.03
2023-07-14T06:59:00,sdl,14.90
2023-07-14T07:00:00,sdl,14.89
2023-07-14T07:01:00,sdl,14.72
2023-07-14T07:02:00,sdl,14.91
2023-07-14T07:03:00,sdl,15.94
2023-07-14T07:04:00,sdl,15.76
2023-07-14T07:05:00,sdl,17.81
2023-07-14T07:06:00,sdl,17.77
2023-07-14T07:07:00,sdl,17.82
2023-07-14T07:08:00,sdl,18.30
2023-07-14T07:09:00,sdl,17.81
2023-07-14T07:10:00,sdl,18.77
2023-07-14T07:11:00,sdl,18.69
2023-07-14T07:12:00,sdl,18.60
2023-07-14T07:13:00,sdl,18.03
2023-07-14T07:14:00,sdl,15.48
2023-07-14T07:15:00,sdl,15.40
2023-07-14T07:16:00,sdl,15.17
2023-07-14T07:17:00,sdl,15.09
2023-07-14T07:18:00,sdl,15.46
2023-07-14T07:19:00,sdl,17.82
2023-07-14T07:20:00,sdl,15.80
2023-07-14T07:21:00,sdl,16.47
2023-07-14T07:22:00,sdl,16.57
2023-07-14T07:23:00,sdl,18.83
2023-07-14T07:24:00,sdl,19.01
2023-07-14T07:25:00,sdl,19.04
2023-07-14T07:26:00,sdl,18.84
2023-07-14T07:27:00,sdl,19.08
2023-07-14T07:28:00,sdl,19.18
2023-07-14T07:29:00,sdl,19.29
2023-07-14T07:30:00,sdl,19.35
2023-07-14T07:31:00,sdl,19.45
2023-07-14T07:32:00,sdl,16.24
2023-07-14T07:33:00,sdl,18.37
2023-07-14T07:34:00,sdl,18.28
2023-07-14T07:35:00,sdl,17.73
2023-07-14T07:36:00,sdl,20.83
2023-07-14T07:37:00,sdl,12.18
2023-07-14T07:38:00,sdl,12.83
2023-07-14T07:39:00,sdl,14.19
2023-07-14T07:40:00,sdl,13.95
2023-07-14T07:41:00,sdl,14.13
2023-07-14T07:42:00,sdl,15.10
2023-07-14T07:43:00,sdl,13.46
2023-07-14T07:44:00,sdl,14.47
2023-07-14T07:45:00,sdl,14.39
2023-07-14T07:46:00,sdl,14.91
2023-07-14T07:47:00,sdl,12.69
2023-07-14T07:48:00,sdl,12.80
2023-07-14T07:49:00,sdl,12.70
2023-07-14T07:50:00,sdl,12.75
2023-07-14T07:51:00,sdl,12.12
2023-07-14T07:52:00,sdl,10.80
2023-07-14T07:53:00,sdl,11.17
2023-07-14T07:54:00,sdl,11.63
2023-07-14T07:55:00,sdl,11.83
2023-07-14T07:56:00,sdl,11.93
2023-07-14T07:57:00,sdl,11.64
2023-07-14T07:58:00,sdl,11.48
2023-07-14T07:59:00,sdl,11.84
2023-07-14T08:00:00,sdl,12.45
2023-07-14T08:01:00,sdl,12.70
2023-07-14T08:02:00,sdl,12.69
2023-07-14T08:03:00,sdl,13.13
2023-07-14T08:04:00,sdl,13.54
2023-07-14T08:05:00,sdl,13.21
2023-07-14T08:06:00,sdl,13.38
2023-07-14T08:07:00,sdl,11.83
2023-07-14T08:08:00,sdl,10.80
2023-07-14T08:09:00,sdl,11.28
2023-07-14T08:10:00,sdl,11.47
2023-07-14T08:11:00,sdl,11.72
2023-07-14T08:12:00,sdl,13.84
2023-07-14T08:13:00,sdl,13.84
2023-07-14T08:14:00,sdl,14.72
2023-07-14T08:15:00,sdl,15.26
2023-07-14T08:16:00,sdl,15.05
2023-07-14T08:17:00,sdl,15.83
2023-07-14T08:18:00,sdl,15.67
2023-07-14T08:19:00,sdl,15.55
2023-07-14T08:20:00,sdl,15.70
2023-07-14T08:21:00,sdl,15.58
2023-07-14T08:22:00,sdl,15.50
2023-07-14T08:23:00,sdl,15.77
2023-07-14T08:24:00,sdl,15.89
2023-07-14T08:25:00,sdl,16.60
2023-07-14T08:26:00,sdl,16.20
2023-07-14T08:27:00,sdl,13.07
2023-07-14T08:28:00,sdl,9.56
2023-07-14T08:29:00,sdl,14.73
2023-07-14T08:30:00,sdl,15.57
2023-07-14T08:31:00,sdl,13.55
2023-07-14T08:32:00,sdl,13.35
2023-07-14T08:33:00,sdl,13.38
2023-07-14T08:34:00,sdl,15.92
2023-07-14T08:35:00,sdl,16.86
2023-07-14T08:36:00,sdl,17.37
2023-07-14T08:37:00,sdl,17.05
2023-07-14T08:38:00,sdl,17.27
2023-07-14T08:39:00,sdl,17.28
2023-07-14T08:40:00,sdl,17.32
2023-07-14T08:41:00,sdl,17.61
2023-07-14T08:42:00,sdl,17.66
2023-07-14T08:43:00,sdl,17.75
2023-07-14T08:44:00,sdl,17.91
2023-07-14T08:45:00,sdl,18.18
2023-07-14T08:46:00,sdl,18.14
2023-07-14T08:47:00,sdl,18.18
2023-07-14T08:48:00,sdl,20.91
2023-07-14T08:49:00,sdl,21.14
2023-07-14T08:50:00,sdl,20.71
2023-07-14T08:51:00,sdl,20.86
2023-07-14T08:52:00,sdl,21.02
2023-07-14T08:53:00,sdl,20.37
2023-07-14T08:54:00,sdl,20.34
2023-07-14T08:55:00,sdl,20.00
2023-07-14T08:56:00,sdl,20.69
2023-07-14T08:57:00,sdl,19.86
2023-07-14T08:58:00,sdl,18.53
2023-07-14T08:59:00,sdl,18.83
2023-07-14T09:00:00,sdl,19.03
2023-07-14T09:01:00,sdl,18.81
2023-07-14T09:02:00,sdl,18.88
2023-07-14T09:03:00,sdl,18.20
2023-07-14T09:04:00,sdl,18.43
2023-07-14T09:05:00,sdl,18.29
2023-07-14T09:06:00,sdl,18.38
2023-07-14T09:07:00,sdl,18.11
2023-07-14T09:08:00,sdl,18.47
2023-07-14T09:09:00,sdl,18.22
2023-07-14T09:10:00,sdl,17.96
2023-07-14T09:11:00,sdl,18.49
2023-07-14T09:12:00,sdl,17.95
2023-07-14T09:13:00,sdl,20.11
2023-07-14T09:14:00,sdl,20.28
2023-07-14T09:15:00,sdl,20.13
2023-07-14T09:16:00,sdl,20.48
2023-07-14T09:17:00,sdl,20.08
2023-07-14T09:18:00,sdl,20.35
2023-07-14T09:19:00,sdl,20.20
2023-07-14T09:20:00,sdl,18.39
2023-07-14T09:21:00,sdl,18.10
2023-07-14T09:22:00,sdl,18.03
2023-07-14T09:23:00,sdl,18.47
2023-07-14T09:24:00,sdl,18.16
2023-07-14T09:25:00,sdl,13.67
2023-07-14T09:26:00,sdl,13.15
2023-07-14T09:27:00,sdl,12.55
2023-07-14T09:28:00,sdl,12.33
2023-07-14T09:29:00,sdl,12.72
2023-07-14T09:30:00,sdl,12.09
2023-07-14T09:31:00,sdl,11.95
2023-07-14T09:32:00,sdl,10.31
2023-07-14T09:33:00,sdl,10.46
2023-07-14T09:34:00,sdl,10.54
2023-07-14T09:35:00,sdl,8.68
2023-07-14T09:36:00,sdl,7.51
2023-07-14T09:37:00,sdl,6.99
2023-07-14T09:38:00,sdl,7.04
2023-07-14T09:39:00,sdl,7.08
2023-07-14T09:40:00,sdl,6.25
2023-07-14T09:41:00,sdl,6.91
2023-07-14T09:42:00,sdl,7.72
2023-07-14T09:43:00,sdl,7.92
2023-07-14T09:44:00,sdl,7.68
2023-07-14T09:45:00,sdl,7.51
2023-07-14T09:46:00,sdl,8.61
2023-07-14T09:47:00,sdl,8.26
2023-07-14T09:48:00,sdl,8.48
2023-07-14T09:49:00,sdl,9.34
2023-07-14T09:50:00,sdl,8.28
2023-07-14T09:51:00,sdl,10.07
2023-07-14T09:52:00,sdl,11.62
2023-07-14T09:53:00,sdl,13.22
2023-07-14T09:54:00,sdl,13.77
2023-07-14T09:55:00,sdl,14.04
2023-07-14T09:56:00,sdl,14.60
2023-07-14T09:57:00,sdl,14.75
2023-07-14T09:58:00,sdl,15.84
2023-07-14T09:59:00,sdl,17.57
2023-07-14T10:00:00,sdl,17.91
2023-07-14T10:01:00,sdl,17.66
2023-07-14T10:02:00,sdl,22.17
2023-07-14T10:03:00,sdl,22.80
2023-07-14T10:04:00,sdl,23.35
2023-07-14T10:05:00,sdl,23.64
2023-07-14T10:06:00,sdl,22.56
2023-07-14T10:07:00,sdl,23.29
2023-07-14T10:08:00,sdl,25.85
2023-07-14T10:09:00,sdl,27.56
2023-07-14T10:10:00,sdl,27.17
2023-07-14T10:11:00,sdl,27.30
2023-07-14T10:12:00,sdl,27.31
2023-07-14T10:13:00,sdl,27.44
2023-07-14T10:14:00,sdl,27.87
2023-07-14T10:15:00,sdl,27.94
2023-07-14T10:16:00,sdl,27.99
2023-07-14T10:17:00,sdl,28.01
2023-07-14T10:18:00,sdl,28.17
2023-07-14T10:19:00,sdl,28.10
2023-07-14T10:20:00,sdl,28.19
2023-07-14T10:21:00,sdl,28.16
2023-07-14T10:22:00,sdl,28.17
2023-07-14T10:23:00,sdl,28.19
2023-07-14T10:24:00,sdl,27.23
2023-07-14T10:25:00,sdl,27.30
2023-07-14T10:26:00,sdl,26.89
2023-07-14T10:27:00,sdl,26.82
2023-07-14T10:28:00,sdl,26.90
2023-07-14T10:29:00,sdl,26.73
2023-07-14T10:30:00,sdl,26.60
2023-07-14T10:31:00,sdl,26.63
2023-07-14T10:32:00,sdl,26.51
2023-07-14T10:33:00,sdl,26.56
2023-07-14T10:34:00,sdl,26.52
2023-07-14T10:35:00,sdl,26.54
2023-07-14T10:36:00,sdl,26.57
2023-07-14T10:37:00,sdl,26.58
2023-07-14T10:38:00,sdl,26.56
2023-07-14T10:39:00,sdl,27.56
2023-07-14T10:40:00,sdl,27.67
2023-07-14T10:41:00,sdl,27.64
2023-07-14T10:42:00,sdl,27.65
2023-07-14T10:43:00,sdl,27.73
2023-07-14T10:44:00,sdl,27.75
2023-07-14T10:45:00,sdl,27.88
2023-07-14T10:46:00,sdl,27.89
2023-07-14T10:47:00,sdl,27.62
2023-07-14T10:48:00,sdl,27.65
2023-07-14T10:49:00,sdl,27.59
2023-07-14T10:50:00,sdl,27.60
2023-07-14T10:51:00,sdl,27.74
2023-07-14T10:52:00,sdl,26.79
2023-07-14T10:53:00,sdl,26.80
2023-07-14T10:54:00,sdl,26.88
2023-07-14T10:55:00,sdl,26.93
2023-07-14T10:56:00,sdl,26.71
2023-07-14T10:57:00,sdl,26.95
2023-07-14T10:58:00,sdl,26.45
2023-07-14T10:59:00,sdl,26.72
2023-07-14T11:00:00,sdl,26.66
2023-07-14T11:01:00,sdl,27.91
2023-07-14T11:02:00,sdl,27.71
2023-07-14T11:03:00,sdl,27.67
2023-07-14T11:04:00,sdl,27.59
2023-07-14T11:05:00,sdl,27.71
2023-07-14T11:06:00,sdl,27.79
2023-07-14T11:07:00,sdl,27.76
2023-07-14T11:08:00,sdl,27.80
2023-07-14T11:09:00,sdl,27.85
2023-07-14T11:10:00,sdl,27.89
2023-07-14T11:11:00,sdl,27.93
2023-07-14T11:12:00,sdl,27.96
2023-07-14T11:13:00,sdl,27.86
2023-07-14T11:14:00,sdl,27.98
2023-07-14T11:15:00,sdl,27.81
2023-07-14T11:16:00,sdl,27.68
2023-07-14T11:17:00,sdl,27.71
2023-07-14T11:18:00,sdl,27.94
2023-07-14T11:19:00,sdl,27.71
2023-07-14T11:20:00,sdl,27.74
2023-07-14T11:21:00,sdl,27.90
2023-07-14T11:22:00,sdl,28.06
2023-07-14T11:23:00,sdl,28.11
2023-07-14T11:24:00,sdl,27.78
2023-07-14T11:25:00,sdl,27.69
2023-07-14T11:26:00,sdl,27.07
2023-07-14T11:27:00,sdl,27.97
2023-07-14T11:28:00,sdl,22.34
2023-07-14T11:29:00,sdl,22.31
2023-07-14T11:30:00,sdl,20.55
2023-07-14T11:31:00,sdl,20.55
2023-07-14T11:32:00,sdl,20.56
2023-07-14T11:33:00,sdl,22.31
2023-07-14T11:34:00,sdl,21.64
2023-07-14T11:35:00,sdl,21.48
2023-07-14T11:36:00,sdl,20.65
2023-07-14T11:37:00,sdl,20.70
2023-07-14T11:38:00,sdl,20.92
2023-07-14T11:39:00,sdl,20.72
2023-07-14T11:40:00,sdl,20.73
2023-07-14T11:41:00,sdl,20.91
2023-07-14T11:42:00,sdl,18.35
2023-07-14T11:43:00,sdl,18.20
2023-07-14T11:44:00,sdl,18.98
2023-07-14T11:45:00,sdl,18.38
2023-07-14T11:46:00,sdl,18.09
2023-07-14T11:47:00,sdl,18.40
2023-07-14T11:48:00,sdl,18.75
2023-07-14T11:49:00,sdl,18.64
2023-07-14T11:50:00,sdl,18.40
2023-07-14T11:51:00,sdl,18.12
2023-07-14T11:52:00,sdl,18.17
2023-07-14T11:53:00,sdl,17.98
2023-07-14T11:54:00,sdl,19.05
2023-07-14T11:55:00,sdl,19.22
2023-07-14T11:56:00,sdl,19.36
2023-07-14T11:57:00,sdl,19.56
2023-07-14T11:58:00,sdl,24.20
2023-07-14T11:59:00,sdl,23.73
2023-07-14T12:00:00,sdl,25.08
2023-07-14T12:01:00,sdl,25.07
2023-07-14T12:02:00,sdl,27.60
2023-07-14T12:03:00,sdl,27.87
2023-07-14T12:04:00,sdl,27.97
2023-07-14T12:05:00,sdl,27.95
2023-07-14T12:06:00,sdl,27.94
2023-07-14T12:07:00,sdl,28.05
2023-07-14T12:08:00,sdl,27.87
2023-07-14T12:09:00,sdl,28.07
2023-07-14T12:10:00,sdl,28.06
2023-07-14T12:11:00,sdl,28.08
2023-07-14T12:12:00,sdl,28.06
2023-07-14T12:13:00,sdl,28.01
2023-07-14T12:14:00,sdl,28.09
2023-07-14T12:15:00,sdl,27.98
2023-07-14T12:16:00,sdl,27.98
2023-07-14T12:17:00,sdl,28.00
2023-07-14T12:18:00,sdl,27.89
2023-07-14T12:19:00,sdl,28.03
2023-07-14T12:20:00,sdl,27.81
2023-07-14T12:21:00,sdl,27.59
2023-07-14T12:22:00,sdl,27.49
2023-07-14T12:23:00,sdl,27.66
2023-07-14T12:24:00,sdl,27.93
2023-07-14T12:25:00,sdl,26.84
2023-07-14T12:26:00,sdl,26.79
2023-07-14T12:27:00,sdl,26.86
2023-07-14T12:28:00,sdl,26.74
2023-07-14T12:29:00,sdl,26.60
2023-07-14T12:30:00,sdl,26.72
2023-07-14T12:31:00,sdl,26.58
2023-07-14T12:32:00,sdl,26.31
2023-07-14T12:33:00,sdl,26.27
2023-07-14T12:34:00,sdl,26.34
2023-07-14T12:35:00,sdl,26.13
2023-07-14T12:36:00,sdl,24.68
2023-07-14T12:37:00,sdl,24.79
2023-07-14T12:38:00,sdl,24.68
2023-07-14T12:39:00,sdl,26.78
2023-07-14T12:40:00,sdl,26.66
2023-07-14T12:41:00,sdl,21.97
2023-07-14T12:42:00,sdl,21.79
2023-07-14T12:43:00,sdl,20.47
2023-07-14T12:44:00,sdl,19.61
2023-07-14T12:45:00,sdl,19.90
2023-07-14T12:46:00,sdl,19.95
2023-07-14T12:47:00,sdl,21.81
2023-07-14T12:48:00,sdl,21.81
2023-07-14T12:49:00,sdl,21.64
2023-07-14T12:50:00,sdl,21.67
2023-07-14T12:51:00,sdl,21.71
2023-07-14T12:52:00,sdl,21.07
2023-07-14T12:53:00,sdl,20.97
2023-07-14T12:54:00,sdl,19.81
2023-07-14T12:55:00,sdl,19.45
2023-07-14T12:56:00,sdl,19.39
2023-07-14T12:57:00,sdl,19.28
2023-07-14T12:58:00,sdl,19.29
2023-07-14T12:59:00,sdl,19.38
2023-07-14T13:00:00,sdl,19.28
2023-07-14T13:01:00,sdl,19.35
2023-07-14T13:02:00,sdl,19.33
2023-07-14T13:03:00,sdl,19.13
2023-07-14T13:04:00,sdl,19.22
2023-07-14T13:05:00,sdl,19.38
2023-07-14T13:06:00,sdl,19.37
2023-07-14T13:07:00,sdl,19.55
2023-07-14T13:08:00,sdl,19.28
2023-07-14T13:09:00,sdl,19.98
2023-07-14T13:10:00,sdl,19.78
2023-07-14T13:11:00,sdl,22.27
2023-07-14T13:12:00,sdl,21.73
2023-07-14T13:13:00,sdl,22.25
2023-07-14T13:14:00,sdl,21.80
2023-07-14T13:15:00,sdl,21.43
2023-07-14T13:16:00,sdl,21.38
2023-07-14T13:17:00,sdl,21.51
2023-07-14T13:18:00,sdl,21.56
2023-07-14T13:19:00,sdl,21.68
2023-07-14T13:20:00,sdl,21.36
2023-07-14T13:21:00,sdl,21.38
2023-07-14T13:22:00,sdl,21.52
2023-07-14T13:23:00,sdl,23.41
2023-07-14T13:24:00,sdl,23.91
2023-07-14T13:25:00,sdl,21.91
2023-07-14T13:26:00,sdl,21.79
2023-07-14T13:27:00,sdl,21.60